Orbital Elements at Epoch 2459200.5 (2020-Dec-17.0) TDB
Reference: JPL 15 (heliocentric ecliptic J2000)
Element | Value | Uncertainty (1-sigma) | Units |
e | .1528150250679814 | 3.1894e-08 | |
a | 2.15084106976976 | 8.3081e-09 | au |
q | 1.82216023777565 | 6.8411e-08 | au |
i | 4.256557247728926 | 4.0774e-06 | deg |
node | 94.17339896082592 | 4.7852e-05 | deg |
peri | 288.2820333532126 | 5.1449e-05 | deg |
M | 286.8775779022641 | 2.3533e-05 | deg |
tp | 2459434.523233404737 (2021-Aug-08.02323340) | 7.6372e-05 | TDB |
period | 1152.154997178543 3.15 | 6.6757e-06 1.828e-08 | d yr |
n | .3124579599807202 | 1.8104e-09 | deg/d |
Q | 2.479521901763869 | 9.5777e-09 | au |
|
| | Orbit Determination Parameters
Additional Information
|